Location: ????
(30.1475°N, 31.1342°E)
Time: 08:54:05
(UTC+00:00)

CZ-2C R/B - Pass Details

Date: 27 September 2022
Orbit: 667 x 784 km, 98.3° (Epoch: 28 November)

Event Time Altitude Azimuth Distance (km) Brightness Sun altitude
Rises 02:41:30 0° 345° (NNW) 3,206 5.6 -14.8°
Reaches altitude 10° 02:45:28 10° 314° (NW) 2,248 4.6 -14.0°
Enters shadow 02:46:07 11° 307° (NW) 2,176 4.4 -13.9°
